When you browse on this site, cookies collect data to enhance your experience and personalize the content and advertising you see.
Visit our Privacy Policy to learn more. By continuing to use the site, you agree to this use of cookies and data.
  • Em Portugal
  • Lista de países
  • Para 7 dias
  • Temperatura da água
  • Mapas de satélite
  • Mapa do tempo
  • Widgets de tempo
  • user-avatar
    Iniciar Sessão

    Previsão horária em Innsbruck

    Hoje, 20 Março, Quarta-feira

    Tempo Temperatura Precipitação Vento Pressão Humidade
    00:00 -12°C° 0 mm 1 m/s 597 mmHg 89%
    01:00 -12°C° 0 mm 1 m/s 597 mmHg 88%
    02:00 -13°C° 0 mm 1 m/s 596 mmHg 87%
    03:00 -13°C° 0 mm 1 m/s 596 mmHg 86%
    04:00 -14°C° 0 mm 1 m/s 596 mmHg 85%
    05:00 -13°C° 0 mm 1 m/s 596 mmHg 81%
    06:00 -13°C° 0 mm 1 m/s 597 mmHg 77%
    07:00 -13°C° 0 mm 1 m/s 597 mmHg 73%
    08:00 -10°C° 0 mm 1 m/s 598 mmHg 67%
    09:00 -7°C° 0 mm 1 m/s 600 mmHg 61%
    10:00 -3°C° 0 mm 1 m/s 601 mmHg 55%
    11:00 -4°C° 0 mm 2 m/s 601 mmHg 57%
    12:00 -4°C° 0 mm 2 m/s 601 mmHg 59%
    13:00 -3°C° 0 mm 2 m/s 602 mmHg 61%
    14:00 -3°C° 0 mm 2 m/s 601 mmHg 63%
    15:00 -3°C° 0 mm 2 m/s 601 mmHg 66%
    16:00 -3°C° 0 mm 2 m/s 601 mmHg 68%
    17:00 -3°C° 0 mm 1 m/s 600 mmHg 74%
    18:00 -7°C° 0 mm 1 m/s 599 mmHg 80%
    19:00 -9°C° 0 mm 1 m/s 599 mmHg 87%
    20:00 -10°C° 0 mm 1 m/s 599 mmHg 82%
    21:00 -10°C° 0 mm 1 m/s 599 mmHg 76%
    22:00 -10°C° 0 mm 1 m/s 599 mmHg 71%
    23:00 -10°C° 0 mm 1 m/s 600 mmHg 67%

    Amanhã, 21 Março, Quinta-feira

    Tempo Temperatura Precipitação Vento Pressão Humidade
    00:00 -10°C° 0 mm 1 m/s 600 mmHg 62%
    01:00 -10°C° 0 mm 1 m/s 600 mmHg 58%
    02:00 -10°C° 0 mm 1 m/s 600 mmHg 55%
    03:00 -12°C° 0 mm 2 m/s 600 mmHg 53%
    04:00 -10°C° 0 mm 2 m/s 599 mmHg 51%
    05:00 -10°C° 0 mm 2 m/s 600 mmHg 50%
    06:00 -9°C° 0 mm 2 m/s 600 mmHg 49%
    07:00 -9°C° 0 mm 2 m/s 600 mmHg 48%
    08:00 -6°C° 0 mm 2 m/s 601 mmHg 52%
    09:00 -1°C° 0 mm 1 m/s 603 mmHg 56%
    10:00 +3°C° 0 mm 1 m/s 604 mmHg 60%
    11:00 +3°C° 0 mm 1 m/s 604 mmHg 63%
    12:00 +4°C° 0 mm 1 m/s 604 mmHg 67%
    13:00 +5°C° 0 mm 1 m/s 604 mmHg 70%
    14:00 +5°C° 0 mm 1 m/s 603 mmHg 72%
    15:00 +5°C° 0 mm 1 m/s 603 mmHg 74%
    16:00 +5°C° 0 mm 1 m/s 603 mmHg 77%
    17:00 +2°C° 0 mm 1 m/s 602 mmHg 74%
    18:00 0°C° 0 mm 1 m/s 601 mmHg 72%
    19:00 -2°C° 0 mm 1 m/s 600 mmHg 69%
    20:00 -3°C° 0 mm 1 m/s 600 mmHg 65%
    21:00 -5°C° 0 mm 2 m/s 601 mmHg 61%
    22:00 -5°C° 0 mm 2 m/s 601 mmHg 56%
    23:00 -5°C° 0 mm 2 m/s 601 mmHg 54%

    Depois de amanhã, 22 Março, Sexta-feira

    Tempo Temperatura Precipitação Vento Pressão Humidade
    00:00 -6°C° 0 mm 2 m/s 600 mmHg 53%
    01:00 -6°C° 0 mm 2 m/s 600 mmHg 51%
    02:00 -7°C° 0 mm 3 m/s 600 mmHg 51%
    03:00 -7°C° 0 mm 3 m/s 600 mmHg 50%
    04:00 -7°C° 0 mm 3 m/s 600 mmHg 50%
    05:00 -7°C° 0 mm 3 m/s 600 mmHg 50%
    06:00 -6°C° 0 mm 3 m/s 600 mmHg 50%
    07:00 -5°C° 0 mm 2 m/s 600 mmHg 49%
    08:00 -2°C° 0 mm 2 m/s 601 mmHg 56%
    09:00 +2°C° 0 mm 2 m/s 602 mmHg 63%
    10:00 +5°C° 0 mm 1 m/s 603 mmHg 70%
    11:00 +6°C° 0 mm 1 m/s 603 mmHg 70%
    12:00 +7°C° 0 mm 1 m/s 603 mmHg 69%
    13:00 +8°C° 0 mm 1 m/s 603 mmHg 68%
    14:00 +8°C° 0 mm 1 m/s 603 mmHg 71%
    15:00 +7°C° 0 mm 1 m/s 603 mmHg 73%
    16:00 +6°C° 0 mm 0 m/s 602 mmHg 75%
    17:00 +5°C° 0 mm 1 m/s 601 mmHg 74%
    18:00 +2°C° 0 mm 1 m/s 600 mmHg 73%
    19:00 0°C° 0 mm 1 m/s 599 mmHg 71%
    20:00 0°C° 0 mm 1 m/s 599 mmHg 69%
    21:00 -3°C° 0 mm 2 m/s 600 mmHg 66%
    22:00 -3°C° 0 mm 2 m/s 600 mmHg 63%
    23:00 -3°C° 0 mm 2 m/s 600 mmHg 61%

    23 Março, Sábado

    Tempo Temperatura Precipitação Vento Pressão Humidade
    00:00 -3°C° 0 mm 2 m/s 600 mmHg 59%
    01:00 -4°C° 0 mm 2 m/s 599 mmHg 57%
    02:00 -4°C° 0 mm 2 m/s 599 mmHg 57%
    03:00 -2°C° 0 mm 1 m/s 599 mmHg 58%
    04:00 -2°C° 0 mm 1 m/s 599 mmHg 58%
    05:00 -2°C° 0 mm 1 m/s 599 mmHg 60%
    06:00 -2°C° 0 mm 1 m/s 599 mmHg 62%
    07:00 -2°C° 0 mm 1 m/s 599 mmHg 64%
    08:00 0°C° 0 mm 1 m/s 600 mmHg 67%
    09:00 +3°C° 0 mm 1 m/s 601 mmHg 70%
    10:00 +4°C° 0 mm 0 m/s 602 mmHg 72%
    11:00 +5°C° 0 mm 0 m/s 602 mmHg 71%
    12:00 +7°C° 0 mm 1 m/s 602 mmHg 71%
    13:00 +7°C° 0 mm 1 m/s 602 mmHg 70%
    14:00 +7°C° 0 mm 1 m/s 601 mmHg 72%
    15:00 +7°C° 0 mm 1 m/s 601 mmHg 74%
    16:00 +6°C° 0 mm 1 m/s 601 mmHg 76%
    17:00 +4°C° 0 mm 1 m/s 600 mmHg 80%
    18:00 +2°C° 0 mm 1 m/s 599 mmHg 85%
    19:00 -1°C° 0 mm 0 m/s 598 mmHg 90%
    20:00 -1°C° 0 mm 1 m/s 598 mmHg 88%
    21:00 -1°C° 0 mm 1 m/s 598 mmHg 87%
    22:00 -1°C° 0 mm 1 m/s 599 mmHg 86%
    23:00 -1°C° 0 mm 1 m/s 598 mmHg 82%

    24 Março, Domingo

    Tempo Temperatura Precipitação Vento Pressão Humidade
    00:00 -3°C° 0 mm 2 m/s 598 mmHg 78%
    01:00 -3°C° 0 mm 2 m/s 598 mmHg 74%
    02:00 -4°C° 0 mm 2 m/s 598 mmHg 71%
    03:00 -4°C° 0 mm 2 m/s 597 mmHg 68%
    04:00 -4°C° 0 mm 2 m/s 597 mmHg 65%
    05:00 -4°C° 0 mm 2 m/s 597 mmHg 64%
    06:00 -2°C° 0 mm 1 m/s 597 mmHg 63%
    07:00 -2°C° 0 mm 1 m/s 597 mmHg 61%
    08:00 0°C° 0 mm 1 m/s 598 mmHg 64%
    09:00 +3°C° 0 mm 1 m/s 599 mmHg 68%
    10:00 +5°C° 0 mm 1 m/s 600 mmHg 71%
    11:00 +5°C° 0 mm 1 m/s 600 mmHg 72%
    12:00 +6°C° 0 mm 1 m/s 600 mmHg 73%
    13:00 +6°C° 0 mm 1 m/s 600 mmHg 74%
    14:00 +4°C° 0.1 mm 2 m/s 599 mmHg 77%
    15:00 +4°C° 0.1 mm 2 m/s 599 mmHg 80%
    16:00 +3°C° 0.1 mm 2 m/s 598 mmHg 84%
    17:00 +2°C° 0.2 mm 2 m/s 598 mmHg 87%
    18:00 +1°C° 0.2 mm 2 m/s 598 mmHg 91%
    19:00 +1°C° 0.2 mm 1 m/s 598 mmHg 94%
    20:00 0°C° 0 mm 1 m/s 598 mmHg 95%
    21:00 0°C° 0 mm 1 m/s 598 mmHg 95%
    22:00 -1°C° 0 mm 1 m/s 598 mmHg 95%
    23:00 -1°C° 0 mm 1 m/s 598 mmHg 95%

    25 Março, Segunda-feira

    Tempo Temperatura Precipitação Vento Pressão Humidade
    00:00 -1°C° 0 mm 1 m/s 597 mmHg 95%
    01:00 -1°C° 0 mm 1 m/s 597 mmHg 95%
    02:00 -2°C° 0 mm 1 m/s 597 mmHg 95%
    03:00 -2°C° 0 mm 1 m/s 597 mmHg 95%
    04:00 -3°C° 0 mm 1 m/s 596 mmHg 94%
    05:00 -2°C° 0 mm 1 m/s 597 mmHg 94%
    06:00 -2°C° 0 mm 1 m/s 597 mmHg 93%
    07:00 -2°C° 0 mm 1 m/s 597 mmHg 92%
    08:00 -1°C° 0 mm 1 m/s 598 mmHg 89%
    09:00 -2°C° 0 mm 2 m/s 598 mmHg 86%
    10:00 -1°C° 0 mm 2 m/s 598 mmHg 83%
    11:00 +1°C° 0 mm 2 m/s 598 mmHg 81%
    12:00 +1°C° 0 mm 2 m/s 598 mmHg 78%
    13:00 +2°C° 0 mm 2 m/s 597 mmHg 75%
    14:00 +1°C° 0 mm 2 m/s 597 mmHg 76%
    15:00 +1°C° 0 mm 2 m/s 596 mmHg 78%
    16:00 -1°C° 0 mm 3 m/s 596 mmHg 79%
    17:00 -2°C° 0.1 mm 3 m/s 595 mmHg 84%
    18:00 -3°C° 0.1 mm 2 m/s 595 mmHg 88%
    19:00 -4°C° 0.1 mm 2 m/s 594 mmHg 92%
    20:00 -5°C° 0.1 mm 2 m/s 594 mmHg 92%
    21:00 -5°C° 0.1 mm 2 m/s 594 mmHg 92%
    22:00 -5°C° 0.1 mm 2 m/s 594 mmHg 92%
    23:00 -6°C° 0.1 mm 2 m/s 594 mmHg 92%
    Mostrar mais